Romeoville, IL

3:41 AM CDT on August 17, 2017 (GMT -0500)
Lewis University

Weather History for KLOT - July, 2013

Change the Weather History Date:

Tuesday, July 2, 2013

  Actual Average Record
Temperature  
Mean Temperature 64 °F 74 °F  
Max Temperature 68 °F 84 °F 95 °F (2012)
Min Temperature 61 °F 64 °F 48 °F (2005)
Degree Days  
Heating Degree Days 1 0  
Month to date heating degree days 1 0  
Since 1 June heating degree days 36 33  
Since 1 July heating degree days 1 0  
Cooling Degree Days 0 9  
Month to date cooling degree days 3 18  
Year to date cooling degree days 272 256  
Since 1 June cooling degree days 169 198  
Growing Degree Days 14 (Base 50)    
Moisture  
Dew Point 53 °F    
Average Humidity 68    
Maximum Humidity 81    
Minimum Humidity 59    
Precipitation  
Precipitation 0.00 in 0.13 in 1.25 in (1993)
Month to date precipitation 0.00 0.26  
Year to date precipitation 25.43 19.30  
Sea Level Pressure  
Sea Level Pressure 30.06 in    
Wind  
Wind Speed 11 mph (NE)    
Max Wind Speed 16 mph    
Max Gust Speed 20 mph    
Visibility 10 miles    
Events Rain    
T = Trace of Precipitation, MM = Missing Value Source: NWS Daily Summary

Daily Weather History Graph

Daily Weather History Graph

Search for Another Location

Airport or City:

Trip Planner

Search our weather history database for the weather conditions in past years. The results will help you decide how hot, cold, wet, or windy it might be!

Date:

Astronomy

Jul. 02, 2013 Rise Set
Actual Time 5:22 AM CDT 8:30 PM CDT
Civil Twilight 4:48 AM CDT 9:04 PM CDT
Nautical Twilight 4:05 AM CDT 9:47 PM CDT
Astronomical Twilight 3:13 AM CDT 10:38 PM CDT
Moon 1:27 AM CDT (7/2) 3:42 PM CDT (7/2)
Length of Visible Light 16h 15m
Length of Day
15h 07m
Waning Crescent, 26% of the Moon is Illuminated
Jul 2
Waning Crescent
Jul 8
New
Jul 15
First Quarter
Jul 22
Full
Jul 29
Last Quarter

Hourly Weather History & Observations

Time (CDT) Temp. Dew Point Humidity Pressure Visibility Wind Dir Wind Speed Gust Speed Precip Events Conditions
12:15 AM 63.7 °F 51.8 °F 65% 30.06 in 10.0 mi NNE 11.5 mph - N/A   Clear
12:35 AM 63.5 °F 52.2 °F 67% 30.05 in 10.0 mi NNE 11.5 mph - N/A   Clear
12:55 AM 63.0 °F 52.5 °F 69% 30.05 in 10.0 mi NNE 9.2 mph - N/A   Clear
1:15 AM 62.2 °F 52.7 °F 71% 30.05 in 10.0 mi NNE 8.1 mph - N/A   Clear
1:35 AM 61.0 °F 52.7 °F 74% 30.05 in 10.0 mi NNE 6.9 mph - N/A   Clear
1:55 AM 60.6 °F 52.9 °F 76% 30.05 in 10.0 mi NE 6.9 mph - N/A   Clear
2:15 AM 60.4 °F 52.9 °F 76% 30.05 in 10.0 mi NNE 6.9 mph - N/A   Clear
2:35 AM 60.3 °F 52.9 °F 77% 30.05 in 10.0 mi NNE 6.9 mph - N/A   Clear
2:55 AM 60.1 °F 52.7 °F 77% 30.04 in 10.0 mi NNE 8.1 mph - N/A   Clear
3:15 AM 61.0 °F 52.7 °F 74% 30.04 in 10.0 mi NNE 8.1 mph - N/A   Clear
3:35 AM 61.0 °F 52.3 °F 73% 30.04 in 10.0 mi NNE 8.1 mph - N/A   Scattered Clouds
3:55 AM 61.2 °F 52.2 °F 72% 30.04 in 10.0 mi NNE 10.4 mph - N/A   Scattered Clouds
4:15 AM 61.0 °F 51.8 °F 72% 30.04 in 10.0 mi NNE 10.4 mph - N/A   Scattered Clouds
4:35 AM 61.0 °F 51.4 °F 71% 30.04 in 10.0 mi NNE 11.5 mph - N/A   Mostly Cloudy
4:55 AM 61.0 °F 50.9 °F 69% 30.05 in 10.0 mi NNE 11.5 mph - N/A   Mostly Cloudy
5:15 AM 61.0 °F 50.0 °F 67% 30.05 in 10.0 mi NE 10.4 mph 16.1 mph N/A   Mostly Cloudy
5:35 AM 61.0 °F 49.6 °F 66% 30.05 in 10.0 mi NNE 10.4 mph - N/A   Scattered Clouds
5:55 AM 60.8 °F 49.5 °F 66% 30.05 in 10.0 mi NNE 11.5 mph - N/A   Scattered Clouds
6:15 AM 61.0 °F 49.5 °F 66% 30.06 in 10.0 mi NNE 10.4 mph - N/A   Mostly Cloudy
6:35 AM 61.3 °F 49.1 °F 64% 30.06 in 10.0 mi NNE 10.4 mph - N/A   Overcast
6:55 AM 62.6 °F 48.9 °F 61% 30.06 in 10.0 mi NNE 9.2 mph - N/A   Overcast
7:15 AM 63.0 °F 48.9 °F 60% 30.07 in 10.0 mi NE 15.0 mph - N/A   Overcast
7:35 AM 64.4 °F 50.0 °F 59% 30.07 in 10.0 mi NE 12.7 mph - N/A   Overcast
7:55 AM 63.7 °F 50.2 °F 61% 30.07 in 10.0 mi NNE 12.7 mph - N/A   Overcast
8:15 AM 63.5 °F 50.4 °F 62% 30.08 in 10.0 mi NE 9.2 mph - N/A   Overcast
8:35 AM 63.7 °F 50.9 °F 63% 30.08 in 10.0 mi NE 9.2 mph - N/A   Overcast
8:55 AM 64.4 °F 51.3 °F 62% 30.08 in 10.0 mi NNE 11.5 mph - N/A   Overcast
9:15 AM 64.6 °F 52.0 °F 64% 30.08 in 10.0 mi NNE 11.5 mph - N/A   Overcast
9:35 AM 65.1 °F 52.3 °F 63% 30.08 in 10.0 mi NE 11.5 mph - N/A   Overcast
9:55 AM 65.8 °F 52.7 °F 62% 30.07 in 10.0 mi NNE 13.8 mph 17.3 mph N/A   Overcast
10:15 AM 67.3 °F 53.1 °F 60% 30.07 in 10.0 mi NE 12.7 mph - N/A   Overcast
10:35 AM 66.0 °F 52.3 °F 61% 30.07 in 10.0 mi NE 12.7 mph - N/A   Overcast
10:55 AM 65.5 °F 52.7 °F 63% 30.07 in 10.0 mi NE 13.8 mph - N/A   Overcast
11:15 AM 66.0 °F 52.9 °F 63% 30.08 in 10.0 mi NNE 12.7 mph - N/A   Overcast
11:35 AM 66.9 °F 53.6 °F 62% 30.08 in 10.0 mi NE 11.5 mph - N/A   Overcast
11:55 AM 67.3 °F 53.2 °F 61% 30.08 in 10.0 mi ENE 15.0 mph 19.6 mph N/A   Mostly Cloudy
12:15 PM 67.6 °F 54.0 °F 61% 30.07 in 10.0 mi NE 10.4 mph - N/A   Mostly Cloudy
12:35 PM 67.3 °F 54.0 °F 62% 30.07 in 10.0 mi ENE 9.2 mph 16.1 mph N/A   Scattered Clouds
12:55 PM 67.1 °F 53.8 °F 62% 30.07 in 10.0 mi ENE 11.5 mph 19.6 mph N/A   Mostly Cloudy
1:15 PM 66.4 °F 54.1 °F 65% 30.08 in 10.0 mi East 12.7 mph - N/A   Mostly Cloudy
1:35 PM 65.3 °F 53.8 °F 66% 30.07 in 10.0 mi ENE 12.7 mph 18.4 mph N/A   Overcast
1:55 PM 65.3 °F 54.0 °F 67% 30.07 in 10.0 mi NE 11.5 mph - N/A   Overcast
2:15 PM 64.8 °F 53.1 °F 66% 30.07 in 10.0 mi NE 13.8 mph - N/A   Overcast
2:35 PM 64.8 °F 53.2 °F 66% 30.07 in 10.0 mi NNE 11.5 mph - N/A   Overcast
2:55 PM 65.5 °F 52.5 °F 63% 30.07 in 10.0 mi NE 16.1 mph 19.6 mph N/A   Overcast
3:15 PM 66.2 °F 52.9 °F 62% 30.07 in 10.0 mi NNE 15.0 mph - N/A   Overcast
3:35 PM 65.8 °F 52.9 °F 63% 30.07 in 10.0 mi NE 13.8 mph 18.4 mph N/A   Overcast
3:55 PM 64.9 °F 54.7 °F 69% 30.06 in 10.0 mi NE 11.5 mph - N/A Rain Light Rain
4:15 PM 65.3 °F 54.5 °F 68% 30.06 in 10.0 mi NE 12.7 mph - N/A   Light Drizzle
4:35 PM 67.1 °F 55.4 °F 66% 30.06 in 10.0 mi NNE 12.7 mph - N/A   Overcast
4:55 PM 66.4 °F 54.3 °F 65% 30.05 in 10.0 mi NE 13.8 mph - N/A   Overcast
5:15 PM 65.8 °F 54.1 °F 66% 30.05 in 10.0 mi NNE 15.0 mph - N/A   Overcast
5:35 PM 65.5 °F 53.6 °F 65% 30.05 in 10.0 mi NE 15.0 mph - N/A   Overcast
5:55 PM 65.3 °F 53.6 °F 66% 30.05 in 10.0 mi NE 15.0 mph - N/A   Overcast
6:15 PM 65.5 °F 53.6 °F 65% 30.05 in 10.0 mi NE 16.1 mph 19.6 mph N/A   Overcast
6:35 PM 64.4 °F 53.4 °F 67% 30.05 in 10.0 mi ENE 13.8 mph 17.3 mph N/A   Scattered Clouds
6:55 PM 63.9 °F 53.4 °F 69% 30.06 in 10.0 mi NE 9.2 mph - N/A   Scattered Clouds
7:15 PM 63.9 °F 53.2 °F 68% 30.06 in 10.0 mi NE 12.7 mph - N/A   Mostly Cloudy
7:35 PM 63.5 °F 53.4 °F 70% 30.06 in 10.0 mi NNE 12.7 mph - N/A   Mostly Cloudy
7:55 PM 62.6 °F 53.2 °F 71% 30.06 in 10.0 mi NE 12.7 mph 16.1 mph N/A   Mostly Cloudy
8:15 PM 62.6 °F 53.2 °F 71% 30.06 in 10.0 mi NE 9.2 mph - N/A   Mostly Cloudy
8:35 PM 62.6 °F 53.2 °F 71% 30.06 in 10.0 mi NE 10.4 mph - N/A   Overcast
8:55 PM 61.9 °F 53.6 °F 74% 30.06 in 10.0 mi NNE 10.4 mph - N/A   Overcast
9:15 PM 61.2 °F 53.6 °F 76% 30.06 in 10.0 mi NNE 8.1 mph - N/A   Overcast
9:35 PM 61.0 °F 53.6 °F 77% 30.07 in 10.0 mi NE 15.0 mph - N/A   Overcast
9:55 PM 61.3 °F 53.6 °F 76% 30.07 in 10.0 mi NE 9.2 mph - N/A   Overcast
10:15 PM 61.0 °F 53.6 °F 77% 30.07 in 10.0 mi ENE 8.1 mph - N/A   Overcast
10:35 PM 61.2 °F 53.2 °F 75% 30.06 in 10.0 mi ENE 9.2 mph - N/A   Overcast
10:55 PM 60.8 °F 53.8 °F 78% 30.06 in 10.0 mi NNE 5.8 mph - N/A   Overcast
11:15 PM 60.8 °F 54.5 °F 80% 30.07 in 10.0 mi NNE 4.6 mph - N/A   Overcast
11:35 PM 60.8 °F 54.5 °F 80% 30.07 in 10.0 mi NE 4.6 mph - N/A   Overcast
11:55 PM 61.0 °F 55.0 °F 81% 30.06 in 10.0 mi NNE 3.5 mph - N/A   Overcast